This is the latest recevied weather packets stored in our database for station/object DL5ARK. If no packets are shown the sender has not sent any weather packets the latest 10 day(s).
| Time | Temp. | Humidity | Pressure | Rain* | Wind** | Luminosity | Snow |
|---|---|---|---|---|---|---|---|
| 1777890648 | 22.22° C | 44% | 1001.3 hPa | 0 mm | - | - | - |
| 1777890467 | 22.22° C | 45% | 1001.3 hPa | 0 mm | - | - | - |
| 1777890287 | 21.67° C | 45% | 1001.3 hPa | 0 mm | - | - | - |
| 1777890107 | 21.67° C | 46% | 1001.5 hPa | 0 mm | - | - | - |
| 1777889930 | 21.67° C | 48% | 1001.5 hPa | 0 mm | - | - | - |
| 1777889747 | 21.67° C | 48% | 1001.5 hPa | 0 mm | - | - | - |
| 1777889567 | 21.67° C | 46% | 1001.5 hPa | 0 mm | - | - | - |
| 1777889388 | 21.67° C | 46% | 1001.5 hPa | 0 mm | - | - | - |
| 1777889207 | 20.56° C | 47% | 1001.5 hPa | 0 mm | - | - | - |
| 1777889027 | 21.11° C | 47% | 1001.5 hPa | 0 mm | - | - | - |
| 1777888848 | 21.11° C | 46% | 1001.5 hPa | 0 mm | - | - | - |
| 1777888667 | 21.11° C | 49% | 1001.5 hPa | 0 mm | - | - | - |
| 1777888488 | 21.11° C | 47% | 1001.5 hPa | 0 mm | - | - | - |
| 1777888308 | 20.56° C | 47% | 1001.5 hPa | 0 mm | - | - | - |
| 1777888128 | 21.11° C | 46% | 1001.8 hPa | 0 mm | - | - | - |
| 1777887768 | 20.56° C | 49% | 1001.8 hPa | 0 mm | - | - | - |
| 1777887588 | 20.56° C | 50% | 1001.8 hPa | 0 mm | - | - | - |
| 1777887407 | 20.56° C | 48% | 1001.8 hPa | 0 mm | - | - | - |
| 1777887228 | 20.56° C | 47% | 1001.8 hPa | 0 mm | - | - | - |
| 1777887048 | 20.56° C | 48% | 1001.8 hPa | 0 mm | - | - | - |
| 1777886687 | 20.56° C | 50% | 1001.8 hPa | 0 mm | - | - | - |
| 1777886508 | 20.56° C | 53% | 1001.8 hPa | 0 mm | - | - | - |
| 1777886327 | 20° C | 49% | 1001.8 hPa | 0 mm | - | - | - |
| 1777886148 | 20° C | 53% | 1002 hPa | 0 mm | - | - | - |
| 1777885970 | 20° C | 52% | 1002 hPa | 0 mm | - | - | - |
* Rain latest hour (hover to see other rain measurements)
** Current wind speed in m/s (hover to see current wind gust speed)